Regional Weather Roundup
Issued by NWS

Home | Current Version | Previous Version | Graphics & Text | Print | Product List | Glossary On
Versions: 1 2 3 4 5 6 7 8 9 10 11 12 13 14 15 16 17 18 19 20 21 22 23 24 25 26 27 28 29 30 31 32 33 34 35 36 37 38 39 40 41 42 43 44 45 46 47 48 49 50
000
ASUS43 KIND 220309
RWRIN

WEATHER ROUNDUP FOR INDIANA
NATIONAL WEATHER SERVICE INDIANAPOLIS IN
1000 PM EST SUN DEC 21 2014

NOTE: "FAIR" INDICATES FEW OR NO CLOUDS BELOW 12,000 FEET WITH NO
SIGNIFICANT WEATHER AND/OR OBSTRUCTIONS TO VISIBILITY.

* - STATION DOES NOT REPORT WEATHER SUCH AS PRECIPITATION OR FOG.

+ - STATION NOT QUALITY CONTROLLED BY THE NATIONAL WEATHER SERVICE.
    USE DATA WITH CAUTION...ESPECIALLY DEWPOINT AND RELATIVE
    HUMIDITY OBSERVATIONS.

INZ001>003-010>013-019-020-220400-
NORTHWEST INDIANA

CITY           SKY/WX    TMP DP  RH WIND       PRES   REMARKS
GARY /AIRPORT/ PTCLDY    34  26  71 SE8       30.07F WCI  28
KNOX *+        PTCLDY    31  24  77 SE10      30.10S WCI  22
LA PORTE +     PTCLDY    32  29  90 SE6       30.10F FOG     WCI  26
MICHIGAN CITY+ PTCLDY    32  25  74 SE6       30.09F WCI  26
MONTICELLO +   PTCLDY    31  28  88 SE3       30.10F
RENSSELAER +   PTCLDY    32  32 100 SE9       30.08F FOG     WCI  24
VALPARAISO     PTCLDY    30  26  85 SE8       30.09F WCI  22

$$

LMZ046-743>745-220400-
SOUTHERN LAKE MICHIGAN

STATION/POSITION TIME  TEMP WIND        PRES
                       AIR  DIR/SP/G
                 (UTC) (F)  (DEG/KT/KT) (MB)

$$

INZ004-005-014>016-021>024-220400-
NORTH CENTRAL INDIANA

CITY           SKY/WX    TMP DP  RH WIND       PRES   REMARKS
GOSHEN         CLEAR     30  25  81 SE9       30.12S WCI  22
LOGANSPORT +   PTCLDY    30  27  86 E7        30.11F FOG     WCI  23
PERU/GRISSOM   PTCLDY    30  30 100 SE12      30.11S WCI  21
ROCHESTER +    CLEAR     32  30  93 SE9       30.12S FOG     WCI  24
SOUTH BEND     NOT AVBL
WARSAW +       CLEAR     30  27  86 SE6       30.13S FOG     WCI  24

$$

INZ006>009-017-018-025>027-220400-
NORTHEAST INDIANA

CITY           SKY/WX    TMP DP  RH WIND       PRES   REMARKS
ANGOLA *+      CLEAR     27  25  93 SE8       30.14S WCI  18
AUBURN +       CLEAR     30  27  86 E6        30.15F FOG     WCI  24
FORT WAYNE     PTCLDY    29  25  85 SE6       30.15F WCI  23
HUNTINGTON +   CLEAR     29  26  87 E6        30.13F WCI  23

$$

INZ028-029-035-036-043>045-051>053-220400-
WEST CENTRAL INDIANA

CITY           SKY/WX    TMP DP  RH WIND       PRES   REMARKS
GREENCASTLE +  PTCLDY    30  25  80 E5        30.08F WCI  25
LAFAYETTE      PTCLDY    28  25  88 E7        30.09F WCI  21
TERRE HAUTE    PTCLDY    30  26  85 E6        30.08F WCI  24

$$

INZ030>032-037>040-046>048-054>057-064-065-220400-
CENTRAL INDIANA

CITY           SKY/WX    TMP DP  RH WIND       PRES   REMARKS
CP ATTERBURY + PTCLDY    28  27  93 MISG      30.11F
FRANKFORT +    MOCLDY    31  28  91 E8        30.11S FOG     WCI  23
GREENWOOD *+   PTCLDY    30  23  74 SE7       30.10F WCI  23
INDIANAPOLIS   MOCLDY    30  25  81 E10       30.08F WCI  21
-EAGLE CREEK   MOCLDY    30  25  81 SE7       30.09F WCI  23
KOKOMO *+      PTCLDY    30  27  86 SE8       30.11F WCI  23
MARION +       PTCLDY    29  26  85 SE7       30.13S WCI  22
MT COMFORT *+  PTCLDY    30  23  74 SE8       30.12F WCI  23
SHELBYVILLE    PTCLDY    30  25  81 E7        30.11F WCI  23
ZIONSVILLE +   MOCLDY    31  26  80 SE7       30.10F HAZE    WCI  24

$$

INZ033-034-041-042-049-050-058-059-220400-
EAST CENTRAL INDIANA

CITY           SKY/WX    TMP DP  RH WIND       PRES   REMARKS
MUNCIE         CLEAR     30  25  81 SE7       30.13S WCI  23

$$

INZ060-061-067>069-081>083-085>088-220400-
SOUTHWEST INDIANA

CITY           SKY/WX    TMP DP  RH WIND       PRES   REMARKS
EVANSVILLE     PTCLDY    36  28  73 NE6       30.06F
HUNTINGBURG *+ CLEAR     34  27  75 E5        30.08F WCI  30
WASHINGTON +   CLEAR     31  27  84 SE6       30.08F WCI  26

$$

INZ062-063-066-070>080-084-089>092-220400-
SOUTH CENTRAL AND SOUTHEAST INDIANA

CITY           SKY/WX    TMP DP  RH WIND       PRES   REMARKS
BLOOMINGTON    MOCLDY    31  27  85 SE7       30.08F WCI  24

$$



USA.gov is the U.S. government's official web portal to all federal, state and local government web resources and services.